Multibeam Report for KM1304


Ship Name: Kilo Moana
Chief Scientist: Luther, Douglas
University of Hawaii
Source Organization: UNOLS R2R
Start Date: 2013-03-01
End Date: 2013-03-03


View ISO Metadata

Visit the full NCEI Bathymetry Viewer


Multibeam Bathymetry

Cruise Details

Project: Mooring Deployment/Student Cruise
Instrument: Kongsberg EM710

Data Quality

Number of Files: 96
Number of Records: 206781
BATHYMETRY DATA Quantity Percentage
Number of Beams 86431376 100%
Number of Good Beams 80806293 93.49%
Number of Zero Beams 26 0.0%
Number of Flagged Beams 5625057 6.51%

Navigation Totals

Total Time: 88.1953 hours
Total Track Length: 366.3673 km
Average Speed: 4.154 km/hr (2.2430 knots)

Cruise Bounds

Northern Extent: 21.286146
Southern Extent: 21.046719
Western Extent: -157.92204
Eastern Extent: -157.61168

Limits

Minimum Sonar Depth 4.3719 Maximum Sonar Depth 9.6924
Minimum Altitude 16.046 Maximum Altitude 1750.3004
Minimum Depth 21.2871 Maximum Depth 1961.1425

File Information

Full Resolution Bathymetry as collected (raw): 93

Files File Size Description
0000_20130301_204059_KM122.all.mb58.gz 153.36MB Kongsberg multibeam vendor format
0001_20130301_214047_KM122.all.mb58.gz 165.25MB Kongsberg multibeam vendor format
0002_20130301_222155_KM122.all.mb58.gz 202.24MB Kongsberg multibeam vendor format
0003_20130301_232155_KM122.all.mb58.gz 173.89MB Kongsberg multibeam vendor format
0004_20130302_002153_KM122.all.mb58.gz 142.00MB Kongsberg multibeam vendor format
0005_20130302_012155_KM122.all.mb58.gz 143.32MB Kongsberg multibeam vendor format
0006_20130302_022155_KM122.all.mb58.gz 145.54MB Kongsberg multibeam vendor format
0007_20130302_032154_KM122.all.mb58.gz 145.56MB Kongsberg multibeam vendor format
0008_20130302_042151_KM122.all.mb58.gz 145.36MB Kongsberg multibeam vendor format
0009_20130302_052151_KM122.all.mb58.gz 66.91MB Kongsberg multibeam vendor format
0010_20130302_060825_KM122.all.mb58.gz 140.69MB Kongsberg multibeam vendor format
0011_20130302_070825_KM122.all.mb58.gz 134.70MB Kongsberg multibeam vendor format
0012_20130302_080825_KM122.all.mb58.gz 138.25MB Kongsberg multibeam vendor format
0013_20130302_090823_KM122.all.mb58.gz 140.00MB Kongsberg multibeam vendor format
0014_20130302_100824_KM122.all.mb58.gz 140.24MB Kongsberg multibeam vendor format
0015_20130302_110824_KM122.all.mb58.gz 140.73MB Kongsberg multibeam vendor format
0016_20130302_120822_KM122.all.mb58.gz 140.55MB Kongsberg multibeam vendor format
0017_20130302_130823_KM122.all.mb58.gz 140.50MB Kongsberg multibeam vendor format
0018_20130302_140823_KM122.all.mb58.gz 140.60MB Kongsberg multibeam vendor format
0019_20130302_150824_KM122.all.mb58.gz 140.52MB Kongsberg multibeam vendor format
0020_20130302_160822_KM122.all.mb58.gz 138.38MB Kongsberg multibeam vendor format
0021_20130302_170824_KM122.all.mb58.gz 140.31MB Kongsberg multibeam vendor format
0022_20130302_180824_KM122.all.mb58.gz 136.52MB Kongsberg multibeam vendor format
0023_20130302_190825_KM122.all.mb58.gz 137.65MB Kongsberg multibeam vendor format
0024_20130302_200824_KM122.all.mb58.gz 139.27MB Kongsberg multibeam vendor format
0025_20130302_210823_KM122.all.mb58.gz 136.72MB Kongsberg multibeam vendor format
0026_20130302_220825_KM122.all.mb58.gz 133.78MB Kongsberg multibeam vendor format
0027_20130302_230823_KM122.all.mb58.gz 134.36MB Kongsberg multibeam vendor format
0028_20130303_000823_KM122.all.mb58.gz 138.81MB Kongsberg multibeam vendor format
0029_20130303_010823_KM122.all.mb58.gz 140.62MB Kongsberg multibeam vendor format
0030_20130303_020825_KM122.all.mb58.gz 139.18MB Kongsberg multibeam vendor format
0031_20130303_030823_KM122.all.mb58.gz 138.46MB Kongsberg multibeam vendor format
0032_20130303_040823_KM122.all.mb58.gz 137.72MB Kongsberg multibeam vendor format
0033_20130303_050824_KM122.all.mb58.gz 135.77MB Kongsberg multibeam vendor format
0034_20130303_060823_KM122.all.mb58.gz 135.59MB Kongsberg multibeam vendor format
0035_20130303_070823_KM122.all.mb58.gz 135.87MB Kongsberg multibeam vendor format
0036_20130303_080826_KM122.all.mb58.gz 134.26MB Kongsberg multibeam vendor format
0037_20130303_090823_KM122.all.mb58.gz 134.43MB Kongsberg multibeam vendor format
0038_20130303_100825_KM122.all.mb58.gz 134.25MB Kongsberg multibeam vendor format
0039_20130303_110826_KM122.all.mb58.gz 134.17MB Kongsberg multibeam vendor format
0040_20130303_120826_KM122.all.mb58.gz 134.47MB Kongsberg multibeam vendor format
0041_20130303_130824_KM122.all.mb58.gz 134.82MB Kongsberg multibeam vendor format
0042_20130303_140826_KM122.all.mb58.gz 136.79MB Kongsberg multibeam vendor format
0043_20130303_150826_KM122.all.mb58.gz 145.57MB Kongsberg multibeam vendor format
0044_20130303_160824_KM122.all.mb58.gz 54.94MB Kongsberg multibeam vendor format
9999.all.mb58.gz 2.81MB Kongsberg multibeam vendor format
0000_20130301_192302_KM710.all.mb58.gz 164.63MB Kongsberg multibeam vendor format
0001_20130301_202303_KM710.all.mb58.gz 136.90MB Kongsberg multibeam vendor format
0002_20130301_212303_KM710.all.mb58.gz 398.21MB Kongsberg multibeam vendor format
0003_20130301_222303_KM710.all.mb58.gz 322.24MB Kongsberg multibeam vendor format
0004_20130301_232303_KM710.all.mb58.gz 261.94MB Kongsberg multibeam vendor format
0005_20130302_002303_KM710.all.mb58.gz 99.41MB Kongsberg multibeam vendor format
0006_20130302_012303_KM710.all.mb58.gz 97.07MB Kongsberg multibeam vendor format
0007_20130302_022303_KM710.all.mb58.gz 97.60MB Kongsberg multibeam vendor format
0008_20130302_032304_KM710.all.mb58.gz 97.42MB Kongsberg multibeam vendor format
0009_20130302_042304_KM710.all.mb58.gz 96.96MB Kongsberg multibeam vendor format
0010_20130302_052304_KM710.all.mb58.gz 42.98MB Kongsberg multibeam vendor format
0011_20130302_060833_KM710.all.mb58.gz 94.24MB Kongsberg multibeam vendor format
0012_20130302_070833_KM710.all.mb58.gz 90.45MB Kongsberg multibeam vendor format
0013_20130302_080833_KM710.all.mb58.gz 92.62MB Kongsberg multibeam vendor format
0014_20130302_090833_KM710.all.mb58.gz 94.18MB Kongsberg multibeam vendor format
0015_20130302_100834_KM710.all.mb58.gz 90.99MB Kongsberg multibeam vendor format
0016_20130302_110832_KM710.all.mb58.gz 90.73MB Kongsberg multibeam vendor format
0017_20130302_120834_KM710.all.mb58.gz 91.01MB Kongsberg multibeam vendor format
0018_20130302_130832_KM710.all.mb58.gz 91.71MB Kongsberg multibeam vendor format
0019_20130302_140832_KM710.all.mb58.gz 91.57MB Kongsberg multibeam vendor format
0020_20130302_150834_KM710.all.mb58.gz 90.82MB Kongsberg multibeam vendor format
0021_20130302_160833_KM710.all.mb58.gz 91.49MB Kongsberg multibeam vendor format
0022_20130302_170833_KM710.all.mb58.gz 92.11MB Kongsberg multibeam vendor format
0023_20130302_180832_KM710.all.mb58.gz 92.94MB Kongsberg multibeam vendor format
0024_20130302_190832_KM710.all.mb58.gz 94.96MB Kongsberg multibeam vendor format
0025_20130302_200832_KM710.all.mb58.gz 95.29MB Kongsberg multibeam vendor format
0026_20130302_210833_KM710.all.mb58.gz 95.18MB Kongsberg multibeam vendor format
0027_20130302_220833_KM710.all.mb58.gz 94.74MB Kongsberg multibeam vendor format
0028_20130302_230832_KM710.all.mb58.gz 94.32MB Kongsberg multibeam vendor format
0029_20130303_000833_KM710.all.mb58.gz 94.19MB Kongsberg multibeam vendor format
0030_20130303_010833_KM710.all.mb58.gz 92.67MB Kongsberg multibeam vendor format
0031_20130303_020835_KM710.all.mb58.gz 91.57MB Kongsberg multibeam vendor format
0032_20130303_030834_KM710.all.mb58.gz 91.65MB Kongsberg multibeam vendor format
0033_20130303_040834_KM710.all.mb58.gz 92.56MB Kongsberg multibeam vendor format
0034_20130303_050832_KM710.all.mb58.gz 92.01MB Kongsberg multibeam vendor format
0035_20130303_060833_KM710.all.mb58.gz 89.37MB Kongsberg multibeam vendor format
0036_20130303_070834_KM710.all.mb58.gz 89.82MB Kongsberg multibeam vendor format
0037_20130303_080834_KM710.all.mb58.gz 88.02MB Kongsberg multibeam vendor format
0038_20130303_090835_KM710.all.mb58.gz 89.18MB Kongsberg multibeam vendor format
0039_20130303_100834_KM710.all.mb58.gz 88.51MB Kongsberg multibeam vendor format
0040_20130303_110833_KM710.all.mb58.gz 88.28MB Kongsberg multibeam vendor format
0041_20130303_120833_KM710.all.mb58.gz 89.24MB Kongsberg multibeam vendor format
0042_20130303_130834_KM710.all.mb58.gz 91.57MB Kongsberg multibeam vendor format
0043_20130303_140834_KM710.all.mb58.gz 92.73MB Kongsberg multibeam vendor format
0044_20130303_150835_KM710.all.mb58.gz 124.25MB Kongsberg multibeam vendor format
0045_20130303_160833_KM710.all.mb58.gz 51.71MB Kongsberg multibeam vendor format
9999.all.mb58.gz 3.35MB Kongsberg multibeam vendor format

Metadata Files: 3

Files File Size Description
KM1304_Multibeam.xml NGDC created ISO metadata
em122_bag_info.tar.gz 4.3KB Additional cruise information
em710_bag_info.tar.gz 4.3KB Additional cruise information